This is the latest recevied weather packets stored in our database for station/object WC4PEM-7. If no packets are shown the sender has not sent any weather packets the latest 10 day(s).
| Time | Temp. | Humidity | Pressure | Rain* | Wind** | Luminosity | Snow |
|---|---|---|---|---|---|---|---|
| 1777688929 | 23.33° C | 83% | 1011.8 hPa | 0 mm | - | - | - |
| 1777688629 | 23.33° C | 83% | 1011.7 hPa | 0 mm | - | - | - |
| 1777688329 | 23.33° C | 83% | 1011.6 hPa | 0 mm | - | - | - |
| 1777688029 | 23.33° C | 82% | 1011.6 hPa | 0 mm | - | - | - |
| 1777687760 | 23.33° C | 81% | 1011.5 hPa | 0 mm | - | - | - |
| 1777687729 | 23.33° C | 82% | 1011.4 hPa | 0 mm | - | - | - |
| 1777687429 | 23.33° C | 81% | 1011.5 hPa | 0 mm | - | - | - |
| 1777687129 | 23.33° C | 81% | 1011.6 hPa | 0 mm | - | - | - |
| 1777686829 | 23.89° C | 80% | 1011.6 hPa | 0 mm | - | - | - |
| 1777686529 | 23.89° C | 80% | 1011.4 hPa | 0 mm | - | - | - |
| 1777686524 | 25° C | 74% | 1011.1 hPa | 0 mm | - | - | - |
| 1777686229 | 23.89° C | 79% | 1011.3 hPa | 0 mm | - | - | - |
| 1777686224 | 23.89° C | 78% | 1011.4 hPa | 0 mm | - | - | - |
| 1777685935 | 23.89° C | 77% | 1011.3 hPa | 0 mm | - | - | - |
| 1777685929 | 23.89° C | 78% | 1011.4 hPa | 0 mm | - | - | - |
| 1777685629 | 23.89° C | 77% | 1011.3 hPa | 0 mm | - | - | - |
| 1777685329 | 24.44° C | 76% | 1011.3 hPa | 0 mm | - | - | - |
| 1777685306 | 24.44° C | 76% | 1011.1 hPa | 0 mm | - | - | - |
| 1777685029 | 24.44° C | 76% | 1011.1 hPa | 0 mm | - | - | - |
| 1777684729 | 24.44° C | 75% | 1011 hPa | 0 mm | - | - | - |
| 1777684429 | 25° C | 74% | 1011 hPa | 0 mm | - | - | - |
| 1777684333 | 25° C | 73% | 1010.9 hPa | 0 mm | - | - | - |
| 1777684129 | 25° C | 74% | 1011.1 hPa | 0 mm | - | - | - |
| 1777683829 | 25° C | 73% | 1010.9 hPa | 0 mm | - | - | - |
| 1777683529 | 25° C | 73% | 1011 hPa | 0 mm | - | - | - |
* Rain latest hour (hover to see other rain measurements)
** Current wind speed in m/s (hover to see current wind gust speed)